Boonton, New Jersey, United States (07005)
Lat: 40.90N, Lon: 74.41W
Wx Zone: NJZ008
Local Info
Past Weather Observations for Tuesday, January 20, 2015

NOTE: This archive is for the closest National Weather Service station to Boonton. Information may differ from the station used for current weather conditions.

Click here for Long-term Archive

Time Weather Temperature Dewpoint Humidity Pressure Winds Precip Visibility
23:53
Clear
28°F / -2°C 12°F / -11°C 51% 30.06 in
(1018 mb)
Calm - 10SM
22:53
Partly Cloudy
30°F / -1°C 12°F / -11°C 47% 30.06 in
(1018 mb)
Variable 4.6 mph
(Variable 7 kph)
- 10SM
21:53
Clear
30°F / -1°C 16°F / -9°C 55% 30.04 in
(1017 mb)
Calm - 10SM
20:53
Clear
32°F / 0°C 18°F / -8°C 55% 30.01 in
(1016 mb)
Calm - 10SM
19:53
Partly Cloudy
34°F / 1°C 18°F / -8°C 51% 29.98 in
(1015 mb)
NW 4.6 mph
(NW 7 kph)
- 10SM
18:53
Partly Cloudy
36°F / 2°C 19°F / -7°C 52% 29.98 in
(1015 mb)
NNW 3.5 mph
(NNW 6 kph)
- 10SM
17:53
Overcast
36°F / 2°C 19°F / -7°C 52% 29.95 in
(1014 mb)
NW 4.6 mph
(NW 7 kph)
- 10SM
16:53
Overcast
37°F / 3°C 19°F / -7°C 48% 29.95 in
(1014 mb)
NW 4.6 mph
(NW 7 kph)
- 10SM
15:53
Partly Cloudy
37°F / 3°C 19°F / -7°C 48% 29.95 in
(1014 mb)
NW 8.1 mph
(NW 13 kph)
- 10SM
14:53
Partly Cloudy
37°F / 3°C 18°F / -8°C 45% 29.92 in
(1013 mb)
NW 9.2 mph
(NW 15 kph)
- 10SM
13:53
Partly Cloudy
37°F / 3°C 18°F / -8°C 45% 29.92 in
(1013 mb)
WNW 12.7 mph
(WNW 20 kph)
- 10SM
12:53
Partly Cloudy
37°F / 3°C 18°F / -8°C 45% 29.92 in
(1013 mb)
W 5.8 mph
(W 9 kph)
- 10SM
11:53
Overcast
37°F / 3°C 18°F / -8°C 45% 29.92 in
(1013 mb)
W 5.8 mph
(W 9 kph)
- 10SM
10:53
Clear
36°F / 2°C 18°F / -8°C 48% 29.95 in
(1014 mb)
N 6.9 mph
(N 11 kph)
- 10SM
09:53
Clear
34°F / 1°C 18°F / -8°C 51% 29.95 in
(1014 mb)
NW 9.2 mph
(NW 15 kph)
- 10SM
08:53
Clear
34°F / 1°C 19°F / -7°C 56% 29.95 in
(1014 mb)
NW 6.9 mph
(NW 11 kph)
- 10SM
07:53
Partly Cloudy
32°F / 0°C 19°F / -7°C 60% 29.95 in
(1014 mb)
SSW 3.5 mph
(SSW 6 kph)
- 10SM
06:53
Clear
30°F / -1°C 19°F / -7°C 64% 29.92 in
(1013 mb)
Calm - 10SM
05:53
Clear
32°F / 0°C 19°F / -7°C 60% 29.92 in
(1013 mb)
W 5.8 mph
(W 9 kph)
- 10SM
04:53
Clear
34°F / 1°C 19°F / -7°C 56% 29.89 in
(1012 mb)
WNW 5.8 mph
(WNW 9 kph)
- 10SM
03:53
Overcast
34°F / 1°C 21°F / -6°C 60% 29.89 in
(1012 mb)
NW 6.9 mph
(NW 11 kph)
- 10SM
02:53
Overcast
36°F / 2°C 25°F / -4°C 65% 29.89 in
(1012 mb)
Calm - 10SM
01:53
Overcast
36°F / 2°C 25°F / -4°C 65% 29.89 in
(1012 mb)
WNW 4.6 mph
(WNW 7 kph)
- 10SM
00:53
Overcast
36°F / 2°C 25°F / -4°C 65% 29.89 in
(1012 mb)
NW 3.5 mph
(NW 6 kph)
- 10SM
Time Weather Temperature Dewpoint Humidity Pressure Winds Precip Visibility


Weather for websites

WeatherForYou.com, LLC is not responsible for any damages or problems caused by this service. Current weather conditions are obtained from the closest station including government and personal stations which may have varying degrees of accuracy. Weather forecasts are derived from the NOAA NDFD. Like all things, this site belongs to Jesus Christ... He just trusts me to maintain it. If you have any questions or comments email webmaster@weatherforyou.com

Copyright © 2015, WeatherForYou.com LLC. All rights reserved.